2021-091J (49323 NORAD) Tracking and Keplerian Element Data

This shows tracking and keplerian element data for the satellite.

Feedback or suggestion? Click here.




ElementValue
Catalog49323
Name2021-091J
Epoch Orbit3313
Epoch Day140.78668052
Epoch Year2022
RAAN328.6776
Inclination97.4623
Eccentricity0.0015497
Argument of Perigee223.4995
Mean Anonmoly232.0726
Mean Motion15.19370807
Decay Rate7.867E-05
L11 49323U 21091J 22140.78668052 .00007867 00000+0 37398-3 0 9995
L22 49323 97.4623 328.6776 0015497 223.4995 232.0726 15.19370807 33136

Live tracking and technical data element details for 2021-091J (NORAD 49323). 2021-091J can be tracked NOW for your location showing map with azimuth and elevation plus other details from your city location.

Track the satellite on the map from your city or location and see movement details for azimuth, elevation, latitude, longitude, range, height, and movement on the map or in text.







IsCatalogInMostPopularTable: catalog: 49323, numindb: 32
Update: records affected: 1



GetName: 49323 2021-091J

Hit Count: updated at: Sun, 22 May 2022 06:48:24 GMT